This is the latest recevied weather packets stored in our database for station/object GW7110. If no packets are shown the sender has not sent any weather packets the latest 10 day(s).
| Time | Temp. | Humidity | Pressure | Rain* | Wind** | Luminosity | Snow |
|---|---|---|---|---|---|---|---|
| 1777748639 | 21.11° C | 39% | 30 hPa | 0 mm | - | 1034 W/m² | - |
| 1777748339 | 21.67° C | 37% | 30 hPa | 0 mm | - | 555 W/m² | - |
| 1777746840 | 20.56° C | 36% | 30 hPa | 0 mm | - | 1006 W/m² | - |
| 1777746538 | 20.56° C | 37% | 30 hPa | 0 mm | - | 1010 W/m² | - |
| 1777746239 | 21.11° C | 36% | 30 hPa | 0 mm | - | 998 W/m² | - |
| 1777745939 | 21.11° C | 36% | 30 hPa | 0 mm | - | 1019 W/m² | - |
| 1777745339 | 20.56° C | 38% | 30 hPa | 0 mm | - | 543 W/m² | - |
| 1777745038 | 20.56° C | 36% | 30 hPa | 0 mm | - | 907 W/m² | - |
| 1777744738 | 20.56° C | 38% | 30 hPa | 0 mm | - | 781 W/m² | - |
| 1777744438 | 20.56° C | 39% | 30 hPa | 0 mm | - | 1157 W/m² | - |
| 1777743538 | 20.56° C | 39% | 30 hPa | 0 mm | - | 997 W/m² | - |
| 1777742938 | 20° C | 39% | 30 hPa | 0 mm | - | 1111 W/m² | - |
| 1777742339 | 18.89° C | 45% | 30 hPa | 0 mm | - | 898 W/m² | - |
| 1777741139 | 18.89° C | 42% | 30 hPa | 0 mm | - | 346 W/m² | - |
| 1777740539 | 18.89° C | 41% | 30 hPa | 0 mm | - | 358 W/m² | - |
| 1777739939 | 18.33° C | 41% | 30 hPa | 0 mm | - | 330 W/m² | - |
| 1777739338 | 18.33° C | 45% | 30 hPa | 0 mm | - | 291 W/m² | - |
| 1777738741 | 17.78° C | 44% | 30 hPa | 0 mm | - | 251 W/m² | - |
| 1777738139 | 17.22° C | 44% | 30 hPa | 0 mm | - | 267 W/m² | - |
| 1777737539 | 16.67° C | 45% | 30 hPa | 0 mm | - | 303 W/m² | - |
| 1777736939 | 16.11° C | 47% | 30 hPa | 0 mm | - | 282 W/m² | - |
| 1777736338 | 16.11° C | 50% | 30 hPa | 0 mm | - | 247 W/m² | - |
| 1777734839 | 15.56° C | 48% | 30 hPa | 0 mm | - | 198 W/m² | - |
| 1777734539 | 15.56° C | 50% | 30 hPa | 0 mm | - | 206 W/m² | - |
| 1777734240 | 15.56° C | 49% | 30 hPa | 0 mm | - | 213 W/m² | - |
* Rain latest hour (hover to see other rain measurements)
** Current wind speed in m/s (hover to see current wind gust speed)